Stations météo

réclame
Mon MeteoGroup
Fyvie castle, Grande-Bretagne (99010): Température de l'air & dewpoint: 10.07.2019 14:00:00 - 16.07.2019 14:00:00 (BST)Fyvie castle, Grande-Bretagne (99010): Quantités de précipitations: 10.07.2019 14:00:00 - 16.07.2019 14:00:00 (BST)
Date & Time tt [°C] td [°C] rr [mm]
16.07.2019 14:00:00 - - -
16.07.2019 13:00:00 - - -
16.07.2019 12:00:00 - - -
16.07.2019 11:00:00 - - -
16.07.2019 10:00:00 - - -
16.07.2019 09:00:00 15,0 14,2 0,0
16.07.2019 08:00:00 13,0 13,0 0,0
16.07.2019 07:00:00 11,8 11,8 0,0
16.07.2019 06:00:00 10,6 10,5 0,0
16.07.2019 05:00:00 10,1 10,0 0,0
16.07.2019 04:00:00 9,5 9,3 0,0
16.07.2019 03:00:00 9,5 9,0 0,0
16.07.2019 02:00:00 10,5 9,9 0,0
16.07.2019 01:00:00 11,8 11,1 0,0
16.07.2019 00:00:00 12,8 12,0 0,0
15.07.2019 23:00:00 13,4 12,4 0,0
15.07.2019 22:00:00 14,5 12,7 0,0
15.07.2019 21:00:00 16,0 13,4 0,0
15.07.2019 20:00:00 17,2 13,9 0,0
15.07.2019 19:00:00 18,2 13,7 0,0
15.07.2019 18:00:00 18,9 13,7 0,0
15.07.2019 17:00:00 18,6 13,5 0,0
15.07.2019 16:00:00 19,0 13,3 0,0
15.07.2019 15:00:00 20,4 14,8 0,0
15.07.2019 14:00:00 20,7 13,8 0,0
15.07.2019 13:00:00 19,5 13,7 0,0
15.07.2019 12:00:00 17,4 12,3 0,0
15.07.2019 11:00:00 15,5 11,2 0,0
15.07.2019 10:00:00 13,9 10,6 0,0
15.07.2019 09:00:00 12,6 10,8 0,0
15.07.2019 08:00:00 11,1 11,1 0,0
15.07.2019 07:00:00 9,1 9,1 0,0
15.07.2019 06:00:00 7,3 7,3 0,0
15.07.2019 05:00:00 6,1 6,1 0,0
15.07.2019 04:00:00 5,5 5,2 0,0
15.07.2019 03:00:00 5,9 5,5 0,0
15.07.2019 02:00:00 6,6 6,2 0,0
15.07.2019 01:00:00 7,5 6,9 0,0
15.07.2019 00:00:00 8,4 7,6 0,0
14.07.2019 23:00:00 9,8 8,5 0,0
14.07.2019 22:00:00 12,0 10,0 0,0
14.07.2019 21:00:00 14,3 10,0 0,0
14.07.2019 20:00:00 14,8 10,3 0,0
14.07.2019 19:00:00 15,5 10,7 0,0
14.07.2019 18:00:00 15,8 10,3 0,0
14.07.2019 17:00:00 15,7 10,2 0,0
14.07.2019 16:00:00 15,9 10,4 0,0
14.07.2019 15:00:00 15,4 9,9 0,0
14.07.2019 14:00:00 15,5 9,7 0,0
14.07.2019 13:00:00 14,8 10,6 0,0
14.07.2019 12:00:00 14,6 10,6 0,0
14.07.2019 11:00:00 14,4 10,5 0,0
14.07.2019 10:00:00 13,9 10,9 0,0
14.07.2019 09:00:00 13,7 10,7 0,0
14.07.2019 08:00:00 13,2 10,7 0,0
14.07.2019 07:00:00 12,6 10,3 0,0
14.07.2019 06:00:00 12,2 10,2 0,0
14.07.2019 05:00:00 12,1 10,0 0,0
14.07.2019 04:00:00 12,3 10,0 0,0
14.07.2019 03:00:00 12,4 10,2 0,0
14.07.2019 02:00:00 12,5 10,7 0,0
14.07.2019 01:00:00 12,7 11,8 0,0
14.07.2019 00:00:00 12,8 11,3 0,0
13.07.2019 23:00:00 13,2 11,6 0,2
13.07.2019 22:00:00 13,5 12,6 0,2
13.07.2019 21:00:00 13,9 11,9 0,0
13.07.2019 20:00:00 14,9 11,3 0,0
13.07.2019 19:00:00 15,8 11,0 0,0
13.07.2019 18:00:00 15,9 10,5 0,0
13.07.2019 17:00:00 16,4 10,7 0,0
13.07.2019 16:00:00 16,7 9,9 0,0
13.07.2019 15:00:00 16,8 11,2 0,0
13.07.2019 14:00:00 16,5 12,8 0,0
13.07.2019 13:00:00 15,5 12,6 0,0
13.07.2019 12:00:00 16,9 12,4 0,0
13.07.2019 11:00:00 17,2 12,3 0,0
13.07.2019 10:00:00 16,7 12,2 0,0
13.07.2019 09:00:00 15,4 13,4 0,0
13.07.2019 08:00:00 13,6 13,0 0,0
13.07.2019 07:00:00 12,5 12,1 0,0
13.07.2019 06:00:00 11,7 11,3 0,0
13.07.2019 05:00:00 11,5 10,9 0,0
13.07.2019 04:00:00 11,6 11,0 0,0
13.07.2019 03:00:00 11,7 10,9 0,0
13.07.2019 02:00:00 11,7 10,8 0,0
13.07.2019 01:00:00 11,7 11,0 0,0
13.07.2019 00:00:00 11,6 10,9 0,0
12.07.2019 23:00:00 11,7 10,8 0,0
12.07.2019 22:00:00 12,2 11,2 0,0
12.07.2019 21:00:00 12,4 11,1 0,0
12.07.2019 20:00:00 12,6 11,4 0,0
12.07.2019 19:00:00 13,4 11,5 0,0
12.07.2019 18:00:00 14,1 12,3 0,0
12.07.2019 17:00:00 13,9 12,4 0,0
12.07.2019 16:00:00 13,7 12,1 0,0
12.07.2019 15:00:00 13,9 12,2 0,0
12.07.2019 14:00:00 14,0 12,1 0,0
12.07.2019 13:00:00 13,7 12,2 0,0
12.07.2019 12:00:00 13,4 12,3 0,0
12.07.2019 11:00:00 13,7 12,4 0,0
12.07.2019 10:00:00 14,0 12,5 0,0
12.07.2019 09:00:00 13,7 13,1 0,0
12.07.2019 08:00:00 13,2 12,7 0,0
12.07.2019 07:00:00 13,4 13,0 0,2
12.07.2019 06:00:00 13,4 13,0 0,2
12.07.2019 05:00:00 13,6 13,2 0,0
12.07.2019 04:00:00 13,7 13,4 0,0
12.07.2019 03:00:00 14,3 14,0 0,0
12.07.2019 02:00:00 14,4 14,2 0,0
12.07.2019 01:00:00 14,3 14,1 0,0
12.07.2019 00:00:00 14,0 13,8 0,0
11.07.2019 23:00:00 14,5 14,1 0,0
11.07.2019 22:00:00 15,9 15,1 0,0
11.07.2019 21:00:00 16,8 15,6 0,4
11.07.2019 20:00:00 16,8 14,8 0,0
11.07.2019 19:00:00 17,5 15,3 0,0
11.07.2019 18:00:00 17,7 15,4 0,4
11.07.2019 17:00:00 19,1 15,7 0,0
11.07.2019 16:00:00 19,5 16,3 0,0
11.07.2019 15:00:00 19,4 15,5 0,0
11.07.2019 14:00:00 19,9 14,8 0,0
11.07.2019 13:00:00 19,2 14,2 0,0
11.07.2019 12:00:00 - - 0,2
11.07.2019 11:00:00 18,1 15,8 0,0
11.07.2019 10:00:00 17,3 15,4 0,0
11.07.2019 09:00:00 16,6 15,9 0,0
11.07.2019 08:00:00 16,0 15,7 0,0
11.07.2019 07:00:00 15,5 15,3 0,0
11.07.2019 06:00:00 15,3 15,2 0,0
11.07.2019 05:00:00 14,8 14,6 0,0
11.07.2019 04:00:00 14,6 14,4 0,0
11.07.2019 03:00:00 14,6 14,4 0,0
11.07.2019 02:00:00 14,6 14,3 0,0
11.07.2019 01:00:00 14,8 14,5 0,0
11.07.2019 00:00:00 14,9 14,6 0,0
10.07.2019 23:00:00 14,9 14,6 0,0
10.07.2019 22:00:00 15,0 14,4 0,0
10.07.2019 21:00:00 15,6 14,5 0,0
10.07.2019 20:00:00 16,7 15,5 0,0
10.07.2019 19:00:00 17,0 15,4 0,2
10.07.2019 18:00:00 17,6 15,8 0,2
10.07.2019 17:00:00 18,5 16,0 0,0
10.07.2019 16:00:00 19,3 16,1 0,0
10.07.2019 15:00:00 20,4 17,2 0,0
10.07.2019 14:00:00 19,6 16,2 0,0

tt = Température de l'air
td = dewpoint
rr = Quantités de précipitations

stations d'obs. à proximité